Location: Unspecified
(40.7945°N, 0.0000°E)
Time: 02:38:25
(UTC+00:00)

Altair - Pass Details

Date: 26 January 2021
Orbit: 1501 x 1682 km, 47.2° (Epoch: 01 March)

Event Time Altitude Azimuth Distance (km) Brightness Sun altitude
Rises 02:05:02 0° 185° (S) 4,785 - -57.3°
Reaches altitude 10° 02:09:03 10° 171° (S) 3,834 - -56.7°
Maximum altitude 02:15:56 22° 125° (SE) 3,050 - -55.6°
Exits shadow 02:18:37 20° 105° (ESE) 3,206 9.3 -55.1°
Drops below altitude 10° 02:22:55 10° 81° (E) 3,927 10.0 -54.4°
Sets 02:27:03 0° 67° (ENE) 4,932 10.7 -53.7°
